Theta_e
322 323 324 322 318 317 319 319 316 318 318 316 314 315 316 317 319 319 322 328 329 331 331 334 334 337 337 336 335 336 337 337 337 336 334 334 333 332 333 332 332 333 332 333 332 331 330 332 333
322 322 323 316 321 319 318 317 316 315 316 314 315 316 317 319 318 318 323 328 328 330 332 330 335 336 336 336 336 335 335 334 333 333 332 331 331 330 329 330 329 330 331 330 329 327 326 326 325
321 320 320 318 317 320 319 315 314 316 313 315 316 314 315 318 314 317 323 327 326 328 329 327 333 335 334 334 334 334 333 333 332 330 330 329 328 326 323 322 321 325 326 324 321 319 316 316 318
320 315 310 320 322 319 317 315 313 315 314 313 314 315 313 315 315 317 321 325 325 325 326 327 329 334 333 332 332 332 331 331 330 328 327 325 322 320 317 315 314 319 318 315 311 308 305 304 305
316 311 315 318 316 313 311 312 311 314 314 314 313 314 314 312 315 317 320 325 324 323 322 324 327 332 333 327 331 331 330 329 327 325 322 320 317 315 314 313 314 313 313 312 309 310 309 305 304
313 310 317 317 316 315 313 312 312 313 313 313 314 313 312 310 314 317 320 323 323 323 320 322 327 329 328 328 328 329 329 326 323 320 317 316 315 314 312 312 312 312 312 311 311 309 304 303 299
315 315 317 314 317 317 315 309 313 313 313 312 311 315 312 308 313 315 319 321 322 322 319 319 323 324 324 325 325 326 325 322 318 316 315 314 311 312 310 310 311 311 310 310 304 302 299 298 298
311 312 316 314 315 317 315 311 312 311 313 309 309 313 312 310 313 315 318 319 320 319 318 317 319 320 320 320 319 321 321 317 315 313 312 309 304 306 305 307 310 310 309 305 299 297 296 296 296
309 310 312 313 315 317 314 314 312 311 312 311 310 311 309 310 312 315 315 316 317 317 316 315 316 316 316 315 315 316 315 312 310 309 304 298 297 297 300 304 306 305 303 301 297 296 295 296 296
313 308 309 310 314 315 314 313 313 313 312 311 311 309 308 308 309 310 309 311 314 315 315 314 314 313 313 313 312 311 310 308 307 303 300 299 296 297 300 300 298 297 296 296 296 295 295 295 295
313 313 312 314 313 314 314 312 311 311 311 309 310 309 305 304 303 305 307 310 312 313 313 313 312 311 310 309 310 309 307 305 304 301 299 297 297 297 297 297 296 296 296 296 296 296 296 295 295
316 313 312 314 315 314 313 312 312 309 314 311 308 309 304 303 301 303 303 306 309 311 312 312 310 309 308 306 306 306 305 301 300 299 299 297 297 297 297 297 297 296 295 295 296 296 295 294 294
315 315 314 312 313 312 311 311 311 310 310 307 307 306 305 304 304 304 304 304 304 306 308 310 310 308 306 303 302 303 302 298 298 298 299 298 297 297 297 296 296 295 295 295 295 295 295 295 295
313 313 312 311 312 312 314 313 311 312 310 308 307 306 304 304 305 305 304 304 303 304 305 307 308 307 305 302 301 300 300 298 298 299 299 298 297 297 296 296 295 295 295 295 295 295 295 294 294
312 312 310 309 311 311 310 312 310 312 310 309 307 307 305 304 305 304 306 305 306 306 304 305 305 305 304 302 302 300 298 297 298 299 298 298 297 296 295 295 295 295 295 295 295 295 294 294 294
311 310 311 310 309 310 310 311 311 309 309 309 308 305 304 305 304 307 307 306 306 305 305 304 304 304 303 302 302 301 297 298 299 298 298 297 297 296 295 295 295 295 294 294 294 293 293 293 293
307 309 308 309 308 311 310 311 311 310 308 308 307 306 306 304 303 306 308 308 307 307 305 304 303 303 303 302 301 301 299 298 299 298 298 296 296 295 294 294 294 294 294 293 293 292 292 292 293
308 308 308 309 310 310 311 310 310 311 308 307 307 307 307 307 308 308 309 308 308 307 306 305 303 302 301 301 300 300 299 298 299 298 298 297 295 295 294 293 293 293 293 292 292 292 291 291 292
308 307 308 308 309 311 310 311 311 311 311 307 307 309 309 309 310 309 309 310 306 306 305 304 302 301 299 299 298 298 298 298 298 298 298 297 295 294 293 293 292 292 292 292 291 291 291 290 290
309 310 309 310 309 307 308 309 309 308 310 311 311 309 309 309 308 307 306 306 307 307 306 303 302 300 299 299 298 298 297 297 298 298 298 297 296 294 293 292 292 292 291 291 291 291 290 290 289
308 309 310 310 308 306 307 310 309 307 308 309 309 309 309 309 309 308 303 303 305 305 304 303 302 301 299 299 298 298 297 296 296 296 297 297 296 294 292 292 292 292 291 291 291 291 290 289 288
310 308 309 310 310 312 309 312 309 309 309 307 309 309 308 308 308 307 305 300 303 305 305 303 301 300 299 299 298 297 297 296 295 295 296 296 295 294 293 292 291 291 291 290 291 290 289 289 288
310 309 308 308 307 309 309 309 311 308 307 308 308 309 308 308 306 307 305 302 306 305 304 303 300 299 298 298 298 297 297 296 297 295 295 295 295 294 293 292 291 290 290 290 289 289 289 288 288
308 310 309 306 307 311 310 310 311 308 308 309 308 307 307 308 306 303 302 303 303 303 302 300 299 297 298 297 297 297 296 296 296 295 294 294 294 294 293 292 291 290 289 289 289 288 288 288 287
309 309 310 310 310 313 307 309 312 310 307 308 309 307 305 303 302 301 300 299 299 298 298 297 296 295 296 297 297 296 296 296 296 295 294 292 292 292 292 291 290 290 289 289 288 288 287 287 286
308 308 311 309 311 313 307 311 314 308 307 306 304 304 303 302 302 300 300 299 298 297 296 296 295 295 296 296 295 296 296 296 294 295 294 294 293 292 292 292 291 290 289 288 287 287 287 286 286
306 308 308 310 298 305 311 310 312 307 307 308 307 305 303 301 300 299 298 297 298 297 295 295 295 295 296 295 295 295 295 295 294 294 294 294 294 293 292 292 291 290 289 288 287 286 286 285 285
306 306 310 308 313 309 311 310 312 311 312 311 307 305 302 301 300 300 300 298 298 298 298 297 296 297 296 295 295 294 294 294 294 294 294 293 293 292 292 292 291 290 289 287 286 286 285 284 284
306 307 307 308 312 316 317 315 314 312 307 306 303 302 302 303 303 301 300 300 299 299 299 298 297 296 296 296 295 294 294 294 294 293 293 293 293 292 292 292 291 290 289 287 286 285 285 283 283
307 308 308 312 313 311 314 315 313 313 311 310 311 309 304 302 302 301 300 301 301 299 300 299 298 297 297 296 295 295 294 293 293 293 293 292 292 291 292 291 290 290 289 287 286 285 284 283 282
Wind_Speed
1 3 3 3 4 5 4 6 3 3 2 2 4 4 8 4 6 5 3 18 15 28 25 23 17 16 16 16 15 15 15 13 12 11 9 9 9 8 9 8 8 7 6 5 4 6 8 7 7
1 2 3 2 4 2 5 5 6 5 1 5 3 2 1 6 1 1 8 21 20 27 27 23 21 19 17 17 16 16 14 11 10 10 11 8 9 9 9 9 9 8 7 6 5 6 5 5 3
1 2 3 4 3 4 5 5 5 2 2 1 1 3 3 3 2 6 9 26 23 26 26 23 22 22 21 21 21 19 17 14 14 12 11 11 10 9 7 7 6 8 9 7 6 4 2 2 3
1 5 4 3 6 7 7 7 5 2 1 4 1 4 2 5 4 6 14 27 25 24 24 22 22 20 21 22 22 20 15 16 15 14 13 13 12 11 9 8 8 9 7 5 3 3 3 4 3
4 3 2 1 5 6 6 5 7 6 2 3 4 4 4 3 7 10 19 28 27 25 23 22 22 18 17 21 18 18 17 17 17 17 15 14 13 11 10 10 10 9 9 8 8 8 7 6 3
4 3 2 3 5 6 6 4 7 4 2 2 2 1 6 3 11 17 22 26 26 25 24 23 21 20 18 18 18 18 19 17 17 15 14 14 13 13 12 12 12 11 11 10 10 9 7 7 5
5 3 4 3 5 6 5 7 4 4 2 6 2 3 4 3 13 20 24 24 25 23 24 24 24 22 20 21 20 21 20 19 17 17 16 15 15 14 13 13 12 11 11 11 8 8 7 6 6
4 3 2 4 3 6 3 3 0 6 8 1 7 6 6 3 17 22 24 24 24 24 24 25 25 24 24 23 22 22 21 20 18 18 18 18 17 16 15 16 13 12 11 9 7 5 5 5 4
4 3 3 5 5 4 1 3 2 1 2 3 6 4 1 7 21 23 22 23 26 28 28 28 27 27 25 24 23 22 22 20 20 20 19 18 16 15 16 16 14 12 11 9 6 5 4 3 3
4 3 7 6 4 4 2 4 4 2 4 5 6 3 2 20 28 26 23 26 32 34 34 32 31 30 28 26 25 24 23 22 21 21 20 18 16 16 15 15 13 11 9 8 6 5 5 4 4
5 6 5 7 7 4 4 3 4 4 8 8 10 9 8 16 21 21 25 30 40 38 36 36 34 32 31 29 28 26 25 24 24 23 21 20 19 18 17 14 12 10 8 6 5 4 4 4 5
3 9 6 5 4 3 4 3 5 8 21 6 14 2 7 11 14 24 25 32 36 39 41 39 37 35 34 31 31 29 27 27 27 25 24 23 22 21 18 16 13 11 9 7 5 3 4 4 5
5 5 6 7 6 7 5 11 7 12 19 9 9 7 10 12 20 26 31 30 32 37 41 42 41 40 38 35 33 32 31 31 29 27 26 25 24 22 19 17 15 12 9 7 5 3 2 3 5
2 5 8 5 6 6 5 10 5 17 6 10 8 12 11 12 20 19 26 33 37 40 43 43 44 43 41 40 37 36 34 33 31 30 29 27 24 23 21 18 16 13 10 7 4 2 1 3 5
4 8 9 7 6 9 7 12 11 25 5 11 10 10 10 16 17 27 39 36 43 46 42 45 46 46 45 44 40 38 37 35 34 33 30 29 27 24 22 20 18 15 12 10 6 3 1 3 6
4 1 5 1 7 3 8 16 19 12 7 13 13 10 10 13 18 34 33 38 39 40 44 44 46 48 48 47 44 41 40 38 36 34 32 30 28 26 25 23 20 17 14 11 7 4 2 3 6
2 5 8 14 12 5 8 10 14 5 7 12 11 11 12 12 11 28 36 41 41 45 43 45 46 50 52 49 46 44 42 40 38 36 34 32 31 30 28 26 22 19 16 13 10 7 4 3 6
8 6 6 7 4 5 6 16 14 14 8 13 14 14 16 17 24 27 33 38 41 43 43 43 45 48 49 47 45 43 41 41 40 38 37 35 33 32 30 27 24 21 18 15 12 8 5 2 6
4 6 8 10 10 3 10 15 16 19 15 13 16 20 21 21 26 26 32 33 32 36 39 43 45 47 45 44 44 43 45 45 43 42 40 38 35 33 32 29 27 24 21 17 13 10 5 1 5
11 16 14 18 17 5 17 24 20 12 20 24 23 22 23 20 20 19 17 25 32 37 42 42 45 45 48 44 46 31 35 42 45 44 42 40 38 36 35 32 30 27 23 21 17 12 8 4 1
9 8 17 16 7 6 10 20 15 14 19 24 24 22 21 21 20 20 9 22 30 34 38 42 45 46 47 43 37 31 28 25 36 40 43 42 40 37 36 33 31 28 26 23 18 15 12 8 4
20 13 14 13 3 11 2 15 7 10 16 10 19 18 15 18 15 17 12 10 26 35 36 37 40 45 46 47 45 42 35 28 35 36 46 45 42 39 37 34 32 30 28 25 22 18 15 12 10
11 5 7 4 5 5 5 5 1 5 7 14 16 17 15 15 13 16 12 13 30 32 35 38 38 40 42 48 47 48 39 35 32 39 42 44 43 41 39 36 33 31 29 25 22 20 17 16 14
1 1 2 4 3 10 13 10 3 6 8 5 7 10 11 16 11 9 8 13 19 22 27 32 38 40 42 45 46 48 40 37 36 37 38 43 44 44 42 39 37 34 31 28 24 20 18 17 14
5 3 4 4 1 11 6 7 15 7 8 8 11 12 10 9 9 12 9 8 12 20 27 30 32 33 41 47 49 48 44 45 45 44 42 41 43 48 47 43 39 37 34 31 27 25 23 21 18
8 11 6 8 8 17 5 13 14 8 10 7 4 5 8 10 10 10 10 7 8 13 21 26 31 29 37 43 44 44 44 43 41 43 41 44 45 47 48 45 43 40 36 33 30 28 26 23 20
3 6 5 1 2 1 10 18 19 6 7 2 6 4 6 8 9 10 9 6 6 11 13 19 24 29 37 41 39 43 45 43 41 40 43 44 44 44 45 46 45 42 38 36 34 32 30 27 23
7 2 2 1 3 9 15 10 18 15 19 19 6 6 7 6 8 8 8 8 9 12 17 24 27 33 34 38 42 40 41 45 45 43 44 44 43 42 41 42 46 45 42 39 37 34 31 28 26
1 4 5 1 5 14 18 15 26 18 10 6 7 8 8 9 9 8 8 9 11 14 19 23 28 32 34 38 42 41 43 46 47 47 47 47 45 44 43 42 45 47 45 43 40 38 35 32 28
4 7 7 9 9 11 17 21 28 28 20 16 23 15 6 6 7 7 6 8 14 17 19 25 26 33 41 42 40 44 43 43 44 47 50 49 48 45 44 43 45 47 48 46 45 42 39 35 31
Wind_Direction
33 326 332 31 45 60 267 263 247 258 238 186 137 149 192 172 169 209 172 166 171 177 176 173 168 176 176 178 176 171 167 160 155 156 145 137 129 122 112 111 115 111 111 118 111 80 55 51 45
57 11 38 77 87 32 272 257 240 222 242 115 116 74 249 234 181 230 152 184 176 175 178 176 175 171 164 163 167 167 165 170 175 169 158 149 137 130 113 117 120 118 120 119 100 75 62 50 66
117 27 83 95 118 195 227 238 246 268 161 203 195 207 191 234 197 199 197 182 177 181 184 184 178 178 177 176 174 173 170 177 178 165 159 151 145 140 134 131 133 113 117 108 95 82 64 34 12
155 23 35 99 232 251 214 253 211 190 270 236 205 254 287 223 181 212 182 179 181 184 186 187 184 184 186 187 186 182 173 182 180 168 158 152 149 147 145 148 139 126 115 115 98 63 51 37 27
57 59 66 267 254 265 251 246 170 183 222 231 171 259 249 224 216 193 179 179 182 184 187 189 188 186 188 194 182 179 176 175 169 167 161 159 158 155 151 139 130 127 114 98 89 80 77 81 62
40 93 61 246 247 259 275 183 154 202 220 284 214 171 250 226 191 181 181 184 188 186 186 189 184 189 185 181 178 177 173 174 169 170 168 164 158 151 144 135 127 120 112 104 100 97 87 74 52
119 94 223 251 260 289 249 138 188 191 212 245 179 191 266 257 192 183 184 186 189 194 192 191 191 191 185 183 184 178 179 174 172 169 166 162 159 150 144 138 128 118 113 111 105 98 89 78 67
104 94 270 253 251 272 312 204 355 163 247 87 171 235 262 260 178 177 180 186 193 198 202 198 198 195 190 188 185 181 185 180 177 172 170 170 160 154 150 139 133 127 121 117 110 104 86 67 56
124 63 249 251 187 252 181 228 200 145 241 232 212 201 265 159 166 171 179 191 197 202 205 204 203 200 198 194 192 190 190 187 183 182 180 173 168 164 153 148 147 137 134 129 122 108 94 75 60
120 150 229 218 226 246 263 195 260 308 244 252 283 233 176 166 172 175 186 196 203 206 206 207 206 204 202 200 199 198 198 193 193 191 187 180 174 169 167 163 162 157 148 140 128 114 98 83 67
179 214 218 254 233 253 255 247 217 208 264 208 215 235 173 181 189 195 201 202 208 210 209 208 208 207 205 204 204 204 204 200 199 195 191 187 183 183 181 178 170 165 156 142 122 104 80 53 43
215 245 219 259 222 258 243 277 243 200 251 197 227 201 171 192 202 206 210 211 213 214 215 212 210 209 209 209 209 209 207 205 200 197 195 195 193 192 188 184 180 174 165 154 144 116 73 45 30
231 255 249 254 271 261 304 253 243 257 256 246 243 211 211 209 215 218 220 222 219 219 219 216 213 212 212 211 212 211 209 206 202 201 200 201 200 198 194 192 188 179 173 168 163 136 91 37 16
270 268 272 279 234 248 232 274 140 264 250 245 242 238 228 219 222 224 225 225 222 223 224 220 217 216 214 212 212 211 210 208 206 207 206 205 207 205 201 197 193 187 187 188 178 157 39 13 13
297 312 306 215 226 228 171 289 225 252 202 265 253 252 242 232 218 223 227 224 224 227 225 222 219 217 216 215 214 213 211 208 210 210 209 209 207 207 205 203 200 195 194 195 191 192 314 347 356
337 305 319 294 133 236 156 263 260 251 223 262 271 265 251 251 225 236 236 233 231 227 227 226 221 219 218 217 216 215 212 213 213 212 211 210 210 210 208 207 206 200 197 195 194 196 244 317 342
298 241 225 298 191 153 186 252 269 250 197 267 267 269 266 264 251 244 239 237 233 235 229 226 221 220 218 217 217 217 216 216 216 214 213 213 212 211 211 210 207 203 201 198 196 196 221 297 336
217 221 246 235 287 174 218 245 271 283 200 246 265 267 265 268 262 249 248 243 234 234 231 229 223 219 217 214 214 217 218 218 218 217 216 214 213 212 212 210 209 205 202 198 197 201 202 279 334
193 227 234 255 264 225 236 251 254 268 277 256 261 265 264 263 266 262 247 246 229 227 223 224 218 215 208 203 202 210 212 215 216 218 218 215 214 213 212 212 209 207 207 205 200 196 197 228 345
235 254 261 270 265 207 269 265 266 256 260 262 260 259 261 261 271 268 242 228 221 222 222 216 215 208 206 203 205 203 205 215 218 217 218 217 215 214 214 213 211 209 205 204 204 206 195 188 48
224 227 255 264 306 237 280 275 249 250 249 263 264 255 267 261 266 272 241 219 219 215 215 215 213 209 205 202 196 198 201 212 216 217 217 216 216 217 216 216 215 213 211 212 209 208 202 181 169
264 220 254 263 341 277 2 297 257 238 249 230 261 269 251 266 256 254 244 214 219 224 224 218 211 205 202 201 197 194 197 200 213 212 217 216 216 217 218 218 217 217 215 212 211 207 204 195 184
253 180 221 200 200 315 179 254 229 170 246 251 253 259 263 251 253 266 262 223 235 231 223 213 209 205 199 200 199 196 197 204 209 210 215 216 214 217 218 217 217 219 219 218 215 209 205 202 196
49 43 70 56 122 263 199 207 343 166 218 273 276 264 259 271 282 271 293 264 248 233 217 209 197 198 199 201 203 204 202 199 198 205 208 214 214 215 216 216 216 218 219 218 216 215 214 211 211
129 72 307 315 11 254 178 211 248 266 225 211 248 270 316 319 303 305 293 257 236 209 197 198 195 193 195 201 203 207 208 209 207 204 203 203 209 214 215 213 214 216 217 217 216 214 213 214 216
186 166 178 230 263 282 124 260 275 229 236 255 351 276 311 319 332 299 271 284 263 221 204 191 192 194 201 204 204 207 212 215 214 214 209 211 211 214 218 213 215 217 216 216 216 215 215 214 213
178 176 199 288 11 330 263 275 288 260 294 348 303 347 311 322 320 317 321 300 269 222 213 212 206 204 208 211 211 211 211 213 216 219 219 220 220 219 220 216 217 217 216 215 214 214 213 213 212
176 180 62 359 208 257 273 273 263 283 286 284 254 277 294 313 304 338 335 303 279 249 221 221 222 224 221 218 217 217 216 216 223 224 224 223 224 222 220 218 218 216 215 214 214 214 214 212 213
163 228 200 200 197 248 261 266 268 273 266 243 269 275 299 305 328 327 323 308 259 235 234 229 226 229 229 229 225 221 222 224 223 225 227 227 224 222 219 218 217 215 213 213 212 213 211 212 213
169 230 210 233 251 236 253 253 279 280 286 267 277 291 276 276 284 309 287 278 273 253 246 241 238 236 237 234 229 229 226 224 221 223 227 225 223 222 220 216 216 215 214 213 212 212 211 211 210